Retour au catalogue

SL-14 DEB

ActifPO
NORAD 47087·DEBRIS·🇷🇺 Russia

Lancé Aug 15, 1991 depuis Plesetsk Cosmodrome

Loading…

Prochains Passages (prochaines 24 heures)

TLE

FraisSource: Space-Track

Époque: Sep 11, 2026, 21:41 UTC

1 47087U 91056DM  26254.90398323  .00000129  00000-0  26717-3 0  9991
2 47087  82.5969  66.7081 0061519 166.2445 194.0376 13.24587858283065

Suivez SL-14 DEB en temps réel avec AllMySat

Download on the App Store